BAW3VH EGLL-LFPG

Flight info

Callsign BAW3VH
Flight time 0h 40m
Altitude 25000
Route MODMI1J MODMI M185 MID UL612 BOGNA DCT HARDY UM605 BIBAX BIBAX9W
Aircraft A320/M-SDE3FGHIJ1RWXY/S

Departure

Time 2026-05-05 16:06
Airport London Heathrow Airport (EGLL)

Arrival

Time 2026-05-05 16:46
Airport Charles de Gaulle International Airport (LFPG)
Time Latitude Longitude Altitude Speed Heading
2026-05-05 15:07 51.46832 -0.48622 87 ft 0 kts 179°
2026-05-05 15:55 51.46851 -0.48622 87 ft 3 kts 179°
2026-05-05 15:55 51.46870 -0.48624 87 ft 4 kts 134°
2026-05-05 15:56 51.46876 -0.48656 87 ft 4 kts 90°
2026-05-05 15:56 51.46876 -0.48679 89 ft 0 kts 89°
2026-05-05 16:01 51.46876 -0.48662 87 ft 3 kts 89°
2026-05-05 16:01 51.46877 -0.48616 87 ft 5 kts 89°
2026-05-05 16:01 51.46877 -0.48548 87 ft 7 kts 92°
2026-05-05 16:02 51.46864 -0.48470 87 ft 6 kts 158°
2026-05-05 16:02 51.46823 -0.48472 87 ft 0 kts 179°
2026-05-05 16:03 51.46786 -0.48471 87 ft 8 kts 179°
2026-05-05 16:03 51.46722 -0.48470 87 ft 10 kts 180°
2026-05-05 16:04 51.46634 -0.48471 87 ft 14 kts 180°
2026-05-05 16:04 51.46595 -0.48470 88 ft 0 kts 179°
2026-05-05 16:05 51.46573 -0.48470 88 ft 5 kts 179°
2026-05-05 16:05 51.46534 -0.48469 89 ft 8 kts 179°
2026-05-05 16:05 51.46479 -0.48454 91 ft 4 kts 131°
2026-05-05 16:05 51.46478 -0.48347 89 ft 36 kts 89°
2026-05-05 16:06 51.46481 -0.47570 85 ft 100 kts 90°
2026-05-05 16:06 51.46488 -0.46179 87 ft 148 kts 90°
2026-05-05 16:06 51.46488 -0.44344 293 ft 169 kts 89°
2026-05-05 16:06 51.46485 -0.42474 951 ft 168 kts 90°
2026-05-05 16:07 51.46242 -0.40649 1507 ft 176 kts 114°
2026-05-05 16:07 51.45465 -0.38965 1736 ft 201 kts 131°
2026-05-05 16:07 51.44274 -0.37541 1986 ft 229 kts 152°
2026-05-05 16:07 51.42685 -0.36628 2398 ft 254 kts 160°
2026-05-05 16:08 51.40931 -0.35860 3075 ft 267 kts 172°
2026-05-05 16:08 51.39071 -0.36103 3961 ft 273 kts 197°
2026-05-05 16:08 51.37337 -0.37365 4884 ft 275 kts 207°
2026-05-05 16:08 51.35651 -0.38760 5764 ft 277 kts 208°
2026-05-05 16:09 51.33987 -0.40144 6634 ft 279 kts 208°
2026-05-05 16:09 51.32260 -0.41581 7516 ft 280 kts 208°
2026-05-05 16:09 51.30509 -0.42997 8293 ft 285 kts 207°
2026-05-05 16:09 51.28718 -0.44400 9078 ft 289 kts 206°
2026-05-05 16:10 51.26808 -0.45412 9867 ft 293 kts 187°
2026-05-05 16:10 51.24768 -0.45193 10464 ft 302 kts 164°
2026-05-05 16:10 51.22857 -0.43600 10654 ft 323 kts 142°
2026-05-05 16:10 51.21029 -0.41308 10900 ft 342 kts 141°
2026-05-05 16:11 51.19155 -0.38926 11480 ft 348 kts 140°
2026-05-05 16:11 51.13410 -0.31696 13519 ft 357 kts 141°
2026-05-05 16:12 51.11448 -0.29254 14157 ft 359 kts 141°
2026-05-05 16:12 51.07494 -0.24361 15313 ft 366 kts 141°
2026-05-05 16:13 51.01360 -0.16810 17017 ft 375 kts 141°
2026-05-05 16:13 50.99286 -0.14255 17586 ft 379 kts 141°
2026-05-05 16:13 50.97194 -0.11682 18171 ft 382 kts 142°
2026-05-05 16:14 50.92955 -0.06471 19242 ft 388 kts 142°
2026-05-05 16:14 50.88652 -0.01195 20347 ft 394 kts 142°
2026-05-05 16:15 50.84314 0.04112 21390 ft 400 kts 142°
2026-05-05 16:15 50.79886 0.09531 22371 ft 405 kts 142°
2026-05-05 16:16 50.75392 0.15003 23314 ft 411 kts 142°
2026-05-05 16:16 50.70836 0.20524 24169 ft 414 kts 143°
2026-05-05 16:17 50.66250 0.26069 24860 ft 416 kts 143°
2026-05-05 16:17 50.63958 0.28835 24915 ft 415 kts 143°
2026-05-05 16:18 50.59381 0.34362 24924 ft 414 kts 143°
2026-05-05 16:18 50.57100 0.37113 24926 ft 414 kts 143°
2026-05-05 16:18 50.52527 0.42608 24927 ft 413 kts 143°
2026-05-05 16:19 50.50274 0.45307 24920 ft 413 kts 143°
2026-05-05 16:19 50.47984 0.48050 24917 ft 413 kts 143°
2026-05-05 16:19 50.43455 0.53594 24920 ft 413 kts 142°
2026-05-05 16:20 50.38990 0.59262 24928 ft 413 kts 141°
2026-05-05 16:20 50.34533 0.64941 24922 ft 412 kts 142°
2026-05-05 16:21 50.30063 0.70560 24924 ft 412 kts 142°
2026-05-05 16:22 50.23369 0.78926 24910 ft 410 kts 142°
2026-05-05 16:22 50.18902 0.84475 24906 ft 410 kts 142°
2026-05-05 16:23 50.14483 0.89975 24912 ft 408 kts 142°
2026-05-05 16:23 50.12264 0.92731 24918 ft 408 kts 142°
2026-05-05 16:23 50.07836 0.98239 24910 ft 407 kts 142°
2026-05-05 16:24 50.05565 1.00846 24298 ft 406 kts 149°
2026-05-05 16:24 50.03061 1.02812 23941 ft 397 kts 155°
2026-05-05 16:24 49.98156 1.06457 23092 ft 387 kts 154°
2026-05-05 16:25 49.95748 1.08289 22595 ft 384 kts 154°
2026-05-05 16:25 49.90979 1.11921 21628 ft 379 kts 153°
2026-05-05 16:25 49.88614 1.13710 21163 ft 377 kts 154°
2026-05-05 16:26 49.83907 1.17245 20190 ft 374 kts 154°
2026-05-05 16:26 49.79321 1.20678 19339 ft 367 kts 153°
2026-05-05 16:27 49.77031 1.22386 18946 ft 364 kts 153°
2026-05-05 16:27 49.74781 1.24055 18559 ft 362 kts 153°
2026-05-05 16:27 49.72515 1.25731 18166 ft 361 kts 153°
2026-05-05 16:27 49.70255 1.27400 17751 ft 359 kts 153°
2026-05-05 16:28 49.68010 1.29059 17368 ft 357 kts 153°
2026-05-05 16:28 49.65776 1.30712 16989 ft 355 kts 153°
2026-05-05 16:28 49.63559 1.32358 16601 ft 353 kts 153°
2026-05-05 16:28 49.61350 1.33998 16230 ft 351 kts 153°
2026-05-05 16:29 49.59156 1.35629 15860 ft 349 kts 153°
2026-05-05 16:29 49.56975 1.37248 15483 ft 348 kts 153°
2026-05-05 16:29 49.54801 1.38856 15118 ft 346 kts 153°
2026-05-05 16:29 49.52633 1.40456 14743 ft 345 kts 153°
2026-05-05 16:30 49.50469 1.42047 14385 ft 343 kts 153°
2026-05-05 16:30 49.48322 1.43626 14016 ft 343 kts 153°
2026-05-05 16:30 49.46175 1.45202 13639 ft 341 kts 153°
2026-05-05 16:30 49.44031 1.46771 13250 ft 340 kts 153°
2026-05-05 16:31 49.41898 1.48329 12887 ft 339 kts 153°
2026-05-05 16:31 49.39806 1.49858 12532 ft 337 kts 153°
2026-05-05 16:31 49.37689 1.51406 12168 ft 336 kts 153°
2026-05-05 16:31 49.35588 1.52945 11805 ft 334 kts 153°
2026-05-05 16:32 49.33563 1.54654 11447 ft 330 kts 142°
2026-05-05 16:32 49.31886 1.57001 11179 ft 326 kts 128°
2026-05-05 16:32 49.30624 1.59874 10912 ft 324 kts 115°
2026-05-05 16:32 49.29854 1.63089 10548 ft 320 kts 101°
2026-05-05 16:33 49.29594 1.66428 10363 ft 311 kts 92°
2026-05-05 16:33 49.29459 1.69677 10246 ft 301 kts 93°
2026-05-05 16:33 49.29058 1.72776 10121 ft 295 kts 110°
2026-05-05 16:33 49.28037 1.75445 9959 ft 290 kts 129°
2026-05-05 16:34 49.26516 1.77435 9767 ft 288 kts 147°
2026-05-05 16:34 49.24701 1.78721 9561 ft 287 kts 155°
2026-05-05 16:34 49.22870 1.79944 9366 ft 287 kts 155°
2026-05-05 16:34 49.21048 1.81179 9163 ft 286 kts 155°
2026-05-05 16:35 49.19234 1.82406 8999 ft 285 kts 154°
2026-05-05 16:35 49.17416 1.83635 8797 ft 286 kts 154°
2026-05-05 16:35 49.15604 1.84862 8591 ft 284 kts 154°
2026-05-05 16:35 49.13800 1.86082 8421 ft 283 kts 154°
2026-05-05 16:36 49.11997 1.87297 8220 ft 283 kts 154°
2026-05-05 16:36 49.10200 1.88505 8049 ft 282 kts 154°
2026-05-05 16:36 49.08406 1.89708 7853 ft 281 kts 154°
2026-05-05 16:36 49.06620 1.90907 7679 ft 281 kts 154°
2026-05-05 16:37 49.04840 1.92099 7503 ft 276 kts 154°
2026-05-05 16:37 49.03131 1.93238 7360 ft 269 kts 154°
2026-05-05 16:37 49.01482 1.94519 7158 ft 263 kts 142°
2026-05-05 16:37 49.00838 1.95323 7064 ft 260 kts 133°
2026-05-05 16:38 48.99765 1.97476 6868 ft 253 kts 115°
2026-05-05 16:38 48.99337 1.99156 6721 ft 248 kts 98°
2026-05-05 16:38 48.99245 2.01758 6483 ft 245 kts 94°
2026-05-05 16:38 48.98931 2.04275 6314 ft 239 kts 103°
2026-05-05 16:39 48.98465 2.06667 6102 ft 233 kts 106°
2026-05-05 16:39 48.98145 2.08209 5967 ft 228 kts 106°
2026-05-05 16:39 48.97538 2.11238 5698 ft 217 kts 103°
2026-05-05 16:39 48.97266 2.12674 5596 ft 211 kts 104°
2026-05-05 16:40 48.97048 2.14813 5419 ft 199 kts 85°
2026-05-05 16:40 48.97132 2.16867 5273 ft 189 kts 85°
2026-05-05 16:40 48.97247 2.19512 5054 ft 196 kts 84°
2026-05-05 16:40 48.97318 2.20892 4908 ft 191 kts 83°
2026-05-05 16:41 48.97429 2.22878 4681 ft 186 kts 83°
2026-05-05 16:41 48.97539 2.24850 4385 ft 187 kts 83°
2026-05-05 16:41 48.97650 2.26803 4146 ft 184 kts 83°
2026-05-05 16:41 48.97755 2.28676 3927 ft 176 kts 83°
2026-05-05 16:42 48.97862 2.30559 3675 ft 183 kts 84°
2026-05-05 16:42 48.97969 2.32488 3433 ft 184 kts 83°
2026-05-05 16:42 48.98077 2.34420 3195 ft 183 kts 82°
2026-05-05 16:42 48.98183 2.36341 2946 ft 178 kts 83°
2026-05-05 16:43 48.98284 2.38156 2707 ft 168 kts 83°
2026-05-05 16:43 48.98380 2.39897 2477 ft 163 kts 83°
2026-05-05 16:43 48.98476 2.41616 2268 ft 162 kts 83°
2026-05-05 16:43 48.98570 2.43328 2052 ft 161 kts 83°
2026-05-05 16:44 48.98658 2.44937 1846 ft 147 kts 83°
2026-05-05 16:44 48.98742 2.46466 1647 ft 143 kts 83°
2026-05-05 16:44 48.98823 2.47946 1450 ft 141 kts 83°
2026-05-05 16:44 48.98905 2.49451 1264 ft 141 kts 83°
2026-05-05 16:45 48.98985 2.50918 1092 ft 140 kts 83°
2026-05-05 16:45 48.99065 2.52389 913 ft 140 kts 82°
2026-05-05 16:45 48.99148 2.53871 747 ft 140 kts 82°
2026-05-05 16:45 48.99219 2.55349 558 ft 139 kts 82°
2026-05-05 16:46 48.99305 2.56812 384 ft 139 kts 81°
2026-05-05 16:46 48.99379 2.58141 353 ft 104 kts 86°
2026-05-05 16:46 48.99421 2.58983 351 ft 55 kts 86°
2026-05-05 16:46 48.99506 2.59382 360 ft 32 kts 60°
2026-05-05 16:47 48.99587 2.59641 357 ft 18 kts 60°
2026-05-05 16:47 48.99681 2.59688 356 ft 13 kts 357°
2026-05-05 16:47 48.99746 2.59682 353 ft 11 kts 356°
2026-05-05 16:47 48.99829 2.59671 354 ft 12 kts 355°
2026-05-05 16:48 48.99915 2.59660 361 ft 12 kts 355°
2026-05-05 16:48 49.00013 2.59648 358 ft 14 kts 355°
2026-05-05 16:48 49.00080 2.59570 357 ft 14 kts 269°
2026-05-05 16:48 49.00072 2.59421 354 ft 14 kts 265°
2026-05-05 16:49 49.00064 2.59276 356 ft 14 kts 265°
2026-05-05 16:49 49.00055 2.59112 354 ft 18 kts 265°
2026-05-05 16:49 49.00046 2.58917 358 ft 18 kts 266°
2026-05-05 16:49 49.00034 2.58716 354 ft 20 kts 265°
2026-05-05 16:50 49.00024 2.58512 354 ft 19 kts 266°
2026-05-05 16:50 49.00013 2.58320 357 ft 17 kts 265°
2026-05-05 16:50 49.00003 2.58138 354 ft 17 kts 265°
2026-05-05 16:50 48.99994 2.57957 355 ft 17 kts 265°
2026-05-05 16:51 48.99985 2.57784 360 ft 16 kts 266°
2026-05-05 16:51 48.99975 2.57602 354 ft 18 kts 265°
2026-05-05 16:51 48.99965 2.57417 354 ft 17 kts 265°
2026-05-05 16:51 48.99955 2.57232 354 ft 17 kts 265°
2026-05-05 16:52 48.99946 2.57061 361 ft 15 kts 265°
2026-05-05 16:52 48.99936 2.56882 354 ft 18 kts 265°
2026-05-05 16:52 48.99927 2.56696 360 ft 17 kts 265°
2026-05-05 16:52 48.99931 2.56593 361 ft 7 kts 312°
2026-05-05 16:53 48.99983 2.56579 354 ft 8 kts 356°
2026-05-05 16:53 49.00045 2.56573 356 ft 10 kts 356°
2026-05-05 16:53 49.00104 2.56538 354 ft 9 kts 304°
2026-05-05 16:53 49.00105 2.56440 354 ft 10 kts 265°
2026-05-05 16:54 49.00099 2.56316 354 ft 11 kts 265°
2026-05-05 16:54 49.00100 2.56218 354 ft 5 kts 315°
2026-05-05 16:54 49.00133 2.56213 354 ft 5 kts 353°
2026-05-05 16:54 49.00161 2.56207 358 ft 3 kts 351°
2026-05-05 16:55 49.00175 2.56204 355 ft 0 kts 352°